NOAA 16 DEB, 41207

Orbit data source: Space-Track

NOAA 16 DEB, 41207 is space debris in SSO originally from a launch on Thu, 21 Sep 2000 UTC launched from the Air Force Western Test Range (AFWTR). Debris objects in space refer to the collection of defunct objects orbiting the Earth. Examples of debris include non-operational satellites, rocket bodies, and fragments generated from explosions, collisions, or faulty payload assembly.

Loading next visibility...
Identifier
41207, 2000-055DL
Orbit
SSO
Country
Flag of USUS
Related business
Manufacturer
Unknown
Mission
Spacecraft
Bus & Motor
Unknown
Mass
Unknown
Launch date (UTC)
2000-09-21 (26 years ago)
Launch vehicle
Unknown
Launch site
Air Force Western Test Range (AFWTR)
Object type
Payload
Rocket body
Debris
Shape & HBR
Unknown shape, 0.1 m
Radar Cross Section
Medium (>0.1 m² and <1 m²)

Expand to show TLE details & history
Last TLE update: 1 day ago

TLE from 1 day ago
0 NOAA 16 DEB
1 41207U 00055DL  26257.23576132  .00018020  00000-0  20668-2 0  9990
2 41207  98.8942 173.2365 0029146 340.7292  19.2815 14.85649355565701
Epoch: 2026-09-14T05:39Z
TLE epoch observation values (Epoch: 2026-09-14T05:39:29.778Z)
Latitude
-0.00002°
Longitude
95.14346°
Altitude
595.319 km
Speed
7.573 km/s
True Right ascension
11h 32m 56s
True Declination
0° 00' 00"
Sunlit
Object was in daylight at epoch
Visualization orbit readout
Latitude
Unknown
Longitude
Unknown
Altitude
Unknown
Speed
Unknown
Apparent Right ascension
Unknown
Apparent Declination
Unknown
Sunlit
N/A
Visualization observer readout
Local Sidereal Time
01:45:35
Azimuth
Unknown
Elevation
Unknown
Doppler factor
Unknown
Orbital elements
Apogee altitude
628.993 km
Perigee altitude
588.265 km
Semi-major axis
6,986.766 km
Eccentricity
0.00291
Inclination
98.8942°
RAAN
173.2365°
Arg. of periapsis
340.7292°
True anomaly
19.39217°
Mean anomaly
19.2815°
Eccentric anomaly
19.3368°
Mean motion
3.71645 °/min
Orbital period
96.87 mins
BSTAR
0.0020668
Loading maneuver chart data...
Computing Atmospheric mass density...
Loading historical data...
Loading historical data...
Loading historical data...
Loading historical data...
Loading historical data...
Loading historical data...
Loading historical data...

Documentation

Showing up to 5 results
|